Location: Newark
(25.0000°N, 73.5000°E)
Time: 04:18:13
(UTC+00:00)

Transit 2A Rocket - Pass Details

Date: 04 August 2021
Orbit: 586 x 917 km, 66.7° (Epoch: 24 September)

Event Time Altitude Azimuth Distance (km) Brightness Sun altitude
Rises 17:08:23 0° 350° (N) 3,378 9.1 -38.3°
Reaches altitude 10° 17:11:02 10° 360° (N) 2,487 8.1 -38.7°
Enters shadow 17:12:44 18° 11° (N) 1,990 7.4 -38.9°
